www.pogodaiklimat.ru

Погода и климат >> Архив погоды >> Гана >> Сефви Беквай


ПОГОДА в Сефви Беквай

  • Прогноз погоды в Сефви Беквай
  • Монитор погоды в Сефви Беквай

АРХИВ ПОГОДЫ в Сефви Беквай

Время (UTC), дата Ветер
(напр.,м/с)
 
Видим.   Явления Облачность Т
(С)
Тd
(С)
f
(%)
Тe
(С)
Тes
(С)
Комфортность P
(гПа)
Po
(гПа)
Тmin
(С)
Tmax
(С)
R
(мм)
R24
(мм)
S
(см)
03 19.04 штиль 0 15 км 6/1 330 м
[Sc Cs]
+25.5 +23.4 88 +34 +34 очень
душно
1009.8 990.1
06 19.04 штиль 0 12 км 5/0
[Ci sp]
+24.6 +23.5 94 +33 +33 очень
душно
1010.9 991.1 +24.2
12 19.04 ЮВ 1 18 км 9/6 450 м
[Cu med, cong Cs]
+33.0 +26.0 67 +49 +58 опасность
перегрева
1011.1 991.9
15 19.04 ЮВ 1 18 км 9/4 480 м
[Cu med, cong Cs]
+33.5 +25.9 65 +49 +56 опасность
перегрева
1009.2 990.0
18 19.04 ЮЗ 1 18 км 9/4 360 м
[Cu Sc Cs]
+30.5 +25.9 76 +45 +45 опасность
перегрева
1009.9 990.5 +33.6
21 19.04 штиль 0 10 км гроза без осадков 9/6 330 м
[Cb cap Ac trans]
+26.0 +24.3 90 +36 +36 очень
душно
1012.5 992.8
03 20.04 штиль 0 12 км 6/5 330 м
[Sc Ac trans Ci sp]
+26.0 +24.9 94 +37 +37 очень
душно
1011.0 991.3
06 20.04 штиль 0 12 км 9/9 330 м
[Sc]
+25.6 +24.5 94 +36 +36 очень
душно
1011.8 992.1 +24.2 6
12 20.04 ЮЗ 1 18 км 8/8 480 м
[Cu med, cong Ci sp]
+32.8 +25.7 66 +48 +53 опасность
перегрева
1011.4 992.2
15 20.04 З 2 18 км 8/6 480 м
[Cu med, cong Ci sp]
+34.5 +23.8 54 +46 +51 опасность
перегрева
1008.6 989.5
21 20.04 ЮВ 1 10 км гроза без осадков 9/6 330 м
[Cb cap Ac trans]
+25.5 +24.1 92 +35 +35 очень
душно
1013.2 993.5
00 21.04 ЮЗ 1 10 км {гроза, дождь} 9/6 330 м
[Frnb]
+25.5 +24.1 92 +35 +35 очень
душно
1012.6 992.9 4
03 21.04 ЮЗ 1 10 км 8/4 330 м
[Sc Ac trans Ci sp]
+25.5 +24.4 94 +36 +36 очень
душно
1010.5 990.8
06 21.04 штиль 0 10 км 8/3 330 м
[Sc Ac trans Cs]
+24.5 +23.4 94 +33 +33 очень
душно
1010.0 990.2 +24.2 4
09 21.04 ЮЗ 2 15 км 8/4 420 м
[Cu med, cong Cs]
+29.0 +25.7 82 +43 +49 опасность
перегрева
1011.6 992.1
12 21.04 ЮЗ 2 18 км 6/6 480 м
[Cu med, cong]
+33.0 +26.5 69 +50 +59 опасность
перегрева
1010.1 990.9
15 21.04 ЮЗ 2 18 км 6/5 500 м
[Cu med, cong Ci sp]
+35.0 +25.8 59 +50 +56 опасность
перегрева
1007.6 988.6
18 21.04 Ю 1 16 км 8/0
[Ac trans Cs]
+32.5 +26.6 71 +49 +50 опасность
перегрева
1008.1 988.9 +35.0
21 21.04 штиль 0 10 км 8/4 360 м
[Sc Ac trans Ci sp]
+29.6 +26.2 82 +45 +45 опасность
перегрева
1010.0 990.6
00 22.04 ЮЗ 1 12 км 8/0
[Cs]
+28.0 +25.5 86 +41 +41 опасность
перегрева
1010.6 991.1
03 22.04 штиль 0 12 км 8/4 330 м
[Sc Cs]
+26.6 +25.1 91 +38 +38 очень
душно
1009.3 989.7
06 22.04 штиль 0 12 км 8/6 330 м
[Sc Ac trans]
+26.5 +24.5 89 +37 +37 очень
душно
1011.0 991.4 +26.0
09 22.04 ЮЗ 1 14 км 9/5 330 м
[Cu Sc Ac trans]
+29.0 +26.7 87 +45 +48 опасность
перегрева
1012.5 993.0
15 22.04 ЮВ 2 16 км 5/5 480 м
[Cu med, cong]
+35.0 +25.1 57 +49 +55 опасность
перегрева
1007.4 988.4
18 22.04 штиль 0 16 км 4/1 900 м
[Cb cap Ci sp]
+32.6 +25.9 68 +48 +48 опасность
перегрева
1006.1 986.9 +35.0
21 22.04 ЮЗ 1 12 км 9/9 330 м
[Sc]
+29.5 +25.9 81 +44 +44 опасность
перегрева
1009.5 990.1
06 23.04 штиль 0 12 км 9/5 330 м
[Sc Ac trans]
+26.7 +22.5 78 +35 +35 очень
душно
1010.2 990.6 +26.1
09 23.04 Ю 1 14 км 9/8 330 м
[Cu Sc Ac trans]
+29.8 +25.8 79 +44 +46 опасность
перегрева
1011.7 992.3
12 23.04 ЮЗ 1 15 км 8/6 400 м
[Cu Sc]
+33.5 +25.6 63 +48 +56 опасность
перегрева
1010.2 991.0
15 23.04 ЮЗ 2 18 км 5/5 500 м
[Cu med, cong]
+35.5 +25.6 57 +50 +56 опасность
перегрева
1007.1 988.1
18 23.04 З 1 16 км 4/3 450 м
[Cb cap Cs]
+33.5 +25.6 63 +48 +48 опасность
перегрева
1007.0 987.9 +35.5
21 23.04 СВ 3 400 м гроза, ливневой дождь 9/6 300 м
[Cb cap As op]
+24.0 +23.3 96 +32 +32 очень
душно
1013.1 993.3
00 24.04 штиль 0 7000 м слаб. ливневой дождь, в посл. час гроза 9/9 270 м
[Sc]
+24.0 +22.6 92 +31 +31 очень
душно
1013.9 994.0 40
03 24.04 ЮЗ 1 10 км в посл. час дождь 9/6 300 м
[Sc Ac trans]
+23.8 +23.0 95 +32 +32 очень
душно
1008.5 988.7
06 24.04 штиль 0 10 км {дождь} 9/0
[Ac trans]
+23.6 +22.8 95 +31 +31 очень
душно
1011.2 991.4 +23.1 42
09 24.04 В 1 15 км 8/4 330 м
[Cu Sc Ac trans Ci sp]
+26.9 +23.9 84 +37 +42 очень
душно
1012.5 992.9
12 24.04 ЮВ 1 18 км 9/6 450 м
[Cu med, cong Ac trans]
+31.4 +26.0 73 +47 +52 опасность
перегрева
1012.5 993.1
15 24.04 ЮЗ 1 18 км 9/5 450 м
[Cu med, cong Ac trans]
+33.1 +26.4 68 +50 +53 опасность
перегрева
1009.5 990.3
18 24.04 Ю 2 8000 м гроза, ливневой дождь 9/6 300 м
[Cb cap Ac As]
+26.8 +23.9 84 +37 +37 очень
душно
1011.4 991.8 +33.1 2
21 24.04 С 1 10 км {гроза, дождь} 9/9 330 м
[Sc]
+25.2 +23.6 91 +34 +34 очень
душно
1013.9 994.1
03 25.04 ЮЗ 1 10 км 9/5 300 м
[Sc Cs]
+24.5 +23.6 95 +33 +33 очень
душно
1011.7 991.9
06 25.04 штиль 0 10 км 9/6 300 м
[Sc Ac trans]
+24.5 +23.5 94 +33 +33 очень
душно
1012.6 992.8 +24.0 4
09 25.04 штиль 0 14 км 8/8 330 м
[Cu Sc]
+27.4 +24.6 85 +39 +42 очень
душно
1014.6 994.9
12 25.04 ЮЗ 1 18 км 8/6 480 м
[Cu med, cong Ci sp]
+31.4 +24.7 68 +45 +54 опасность
перегрева
1013.1 993.7
15 25.04 ЮВ 1 20 км 6/5 500 м
[Cu med, cong Ci sp]
+33.8 +25.5 62 +48 +55 опасность
перегрева
1010.2 991.0
00 26.04 штиль 0 10 км в посл. час гроза {дождь} 9/9 330 м
[Sc]
+27.2 +25.3 89 +39 +39 очень
душно
1012.8 993.2 0.8

 

Местоположение метеостанции Сефви Беквай (Гана): широта 6.20 долгота -2.33 высота над уровнем моря 172 м.

В архиве по умолчанию представлена погода в Сефви Беквай за последнюю неделю. Архивные данные за месяц целиком и за предыдущие месяцы, начиная с января 2011 года, Вы можете получить, выбрав интересующий диапазон дат из раскрывающегося списка и нажав кнопку "Ввод!".


*Определитесь, кто Вы:
робот инопланетянин человек

Внимание! Время в таблицах - всемирное. Для получения местного времени необходимо прибавить поправку, которая равна 1 ч.

Смотрите также архив погоды в соседних городах и на ближайших метеорологических станциях:

Погода в Кумаси (Гана) (99 км)
Погода в Суняни (Гана) (126 км)
Погода в Адиаке (Кот-д'Ивуар) (147 км)
Погода в Аксиме (Гана) (148 км)
Погода в Аким Ода (Гана) (152 км)
Погода Такоради (Гана) (159 км)
Погода в Уэнчи (Гана) (174 км)
Погода в Солтпонде (Гана) (178 км)
Погода в Абетифи (Гана) (182 км)
Погода в Абиджане (Кот-д'Ивуар) (206 км)

Пояснения к столбцам:

Ветер - указаны скорость ветра в м/с - средняя за 10 мин, порывы в срок и между сроками (в фигурных скобках) и направление, откуда дует ветер: С - северный, СВ - северо-восточный, В - восточный, ЮВ - юго-восточный, Ю - южный, ЮЗ - юго-западный, З - западный, СЗ - северо-западный.
Видимость - горизонтальная дальность видимости в метрах или километрах. При видимости от 1 до 10 км при отсутствии осадков обычно наблюдается дымка, при ухудшении видимости до 1 км и менее - туман. В сухую погоду видимость может ухудшаться дымом, пылью или мглою.
Явления - указаны атмосферные явления, наблюдавшиеся в срок или в последний час перед сроком; фигурными скобками обозначены явления, наблюдавшиеся между сроками (за 1-3 часа до срока); квадратными скобками обозначены град или гололедные отложения с указанием их диаметра в мм.
Облачность - указаны через наклонную черту общая и нижняя облачность в баллах и высота нижней границы облаков в метрах; квадратными скобками обозначены формы облаков: Ci - перистые, Cs - перисто-слоистые, Cc - перисто-кучевые, Ac - высококучевые, As - высокослоистые, Sc - слоисто-кучевые, Ns - слоисто-дождевые, Cu - кучевые, Cb - кучево-дождевые. Подробнее классификацию облаков см. в Атласе облаков (PDF).
T - Температура воздуха - температура, измеренная на высоте 2 м над землей.
Td - Температура точки росы - температура, при понижении до которой содержащийся в воздухе водяной пар достигнет насыщения.
f - Относительная влажность воздуха - влажноcть воздуха, измеренная на высоте 2 м над землей.
Te - Эффективная температура - температура, которую ощущает одетый по сезону человек в тени. Характеристика душности погоды. При расчете учитывается влияние влажности воздуха и скорости ветра на теплоощущения человека.
Tes - Эффективная температура на солнце - температура, которую ощущает человек, с поправкой на солнечный нагрев. Характеристика знойности погоды. Зависит от высоты солнца над горизонтом, облачности и скорости ветра. Ночью, в пасмурную погоду, а также при ветре 12 м/с и более поправка равна нулю.
P - Атмосферное давление - приведенное к уровню моря атмосферное давление.
Po - Атмосферное давление - измеренное на уровне метеостанции атмосферное давление.
Tmin - Минимальная температура - минимум температуры воздуха на высоте 2 м над землей.
Tmax - Максимальная температура - максимум температуры воздуха на высоте 2 м над землей.
R - Количество осадков - Количество выпавших осадков за период времени, мм. При наведении курсора мыши на число - период времени, за который выпало указанное количество осадков.
R24 - Количество осадков - Количество выпавших осадков за 24 часа, мм.
S - Снежный покров - Высота снежного покрова, см. При наведении курсора мыши на число - состояние снежного покрова и степень покрытия местности в баллах.